Mackinac Island, MI

7:01 AM EST on February 11, 2016 (GMT -0500)
Mackinac Island

Weather History for KMCD - September, 2013

Change the Weather History Date:

Tuesday, September 3, 2013

  Actual Average Record
Temperature  
Mean Temperature 60 °F -  
Max Temperature 67 °F 69 °F - (-1)
Min Temperature 53 °F 56 °F - (-1)
Degree Days  
Heating Degree Days 5    
Growing Degree Days 10 (Base 50)    
Moisture  
Dew Point 53 °F    
Average Humidity 77    
Maximum Humidity 90    
Minimum Humidity 58    
Precipitation  
Precipitation 0.00 in - - ()
Sea Level Pressure  
Sea Level Pressure 29.93 in    
Wind  
Wind Speed 11 mph (West)    
Max Wind Speed 17 mph    
Max Gust Speed 28 mph    
Visibility 10 miles    
Events      
Averages and records for this station are not official NWS values.
T = Trace of Precipitation, MM = Missing Value Source: NWS Daily Summary

Daily Weather History Graph

Daily Weather History Graph

Search for Another Location

Airport or City:

Trip Planner

Search our weather history database for the weather conditions in past years. The results will help you decide how hot, cold, wet, or windy it might be!

Date:

Astronomy

Sep. 03, 2013 Rise Set
Actual Time 7:02 AM EDT 8:12 PM EDT
Civil Twilight 6:31 AM EDT 8:43 PM EDT
Nautical Twilight 5:54 AM EDT 9:19 PM EDT
Astronomical Twilight 5:15 AM EDT 9:58 PM EDT
Moon 5:12 AM EDT (9/3) 7:00 PM EDT (9/3)
Length of Visible Light 14h 11m
Length of Day
13h 10m
Waning Crescent, 3% of the Moon is Illuminated
Sep 3
Waning Crescent
Sep 5
New
Sep 12
First Quarter
Sep 19
Full
Sep 26
Last Quarter

Hourly Weather History & Observations

Time (EDT) Temp. Dew Point Humidity Pressure Visibility Wind Dir Wind Speed Gust Speed Precip Events Conditions
12:15 AM 55.4 °F 51.4 °F 87% 29.89 in 10.0 mi NNW 12.7 mph 18.4 mph N/A   Mostly Cloudy
12:35 AM 55.0 °F 51.4 °F 88% 29.90 in 10.0 mi NW 11.5 mph 18.4 mph N/A   Scattered Clouds
12:55 AM 54.5 °F 51.4 °F 89% 29.90 in 10.0 mi NNW 9.2 mph 18.4 mph N/A   Clear
1:15 AM 54.5 °F 51.3 °F 89% 29.90 in 10.0 mi NW 10.4 mph 16.1 mph N/A   Scattered Clouds
1:36 AM 54.3 °F 51.3 °F 89% 29.91 in 10.0 mi NW 8.1 mph 16.1 mph N/A   Clear
1:55 AM 54.1 °F 50.5 °F 88% 29.91 in 10.0 mi NW 8.1 mph 17.3 mph N/A   Clear
2:15 AM 54.0 °F 50.4 °F 88% 29.92 in 10.0 mi NW 9.2 mph - N/A   Scattered Clouds
2:36 AM 53.6 °F 50.4 °F 89% 29.91 in 10.0 mi NW 9.2 mph - N/A   Clear
2:55 AM 53.6 °F 50.4 °F 89% 29.91 in 10.0 mi NW 6.9 mph - N/A   Clear
3:15 AM 54.1 °F 50.9 °F 89% 29.91 in 10.0 mi NW 9.2 mph - N/A   Clear
3:36 AM 54.5 °F 51.1 °F 88% 29.92 in 10.0 mi NW 9.2 mph 17.3 mph N/A   Scattered Clouds
3:55 AM 54.3 °F 50.9 °F 88% 29.92 in 10.0 mi NW 10.4 mph 18.4 mph N/A   Scattered Clouds
4:15 AM 54.5 °F 50.9 °F 88% 29.92 in 10.0 mi NW 9.2 mph 17.3 mph N/A   Clear
4:35 AM 54.5 °F 51.1 °F 88% 29.92 in 10.0 mi NW 10.4 mph 18.4 mph N/A   Scattered Clouds
4:55 AM 54.5 °F 51.1 °F 88% 29.91 in 10.0 mi NW 11.5 mph 18.4 mph N/A   Clear
5:15 AM 54.3 °F 50.9 °F 88% 29.92 in 10.0 mi NW 10.4 mph 17.3 mph N/A   Clear
5:21 AM 54.3 °F 51.1 °F 89% 29.92 in 10.0 mi NW 9.2 mph 16.1 mph N/A   Clear
5:59 AM 54.1 °F 50.9 °F 89% 29.92 in 10.0 mi NW 10.4 mph - N/A   Clear
6:15 AM 53.8 °F 50.9 °F 90% 29.93 in 10.0 mi NW 8.1 mph - N/A   Clear
6:35 AM 53.8 °F 50.9 °F 90% 29.94 in 10.0 mi WNW 8.1 mph - N/A   Clear
6:55 AM 54.3 °F 51.1 °F 89% 29.94 in 10.0 mi NW 9.2 mph - N/A   Clear
7:15 AM 54.0 °F 50.9 °F 89% 29.95 in 10.0 mi WNW 6.9 mph - N/A   Clear
7:35 AM 54.0 °F 50.9 °F 89% 29.95 in 10.0 mi NW 6.9 mph - N/A   Clear
7:55 AM 55.0 °F 51.4 °F 88% 29.96 in 10.0 mi WNW 6.9 mph - N/A   Clear
8:15 AM 55.6 °F 51.8 °F 87% 29.96 in 10.0 mi WNW 6.9 mph - N/A   Clear
8:35 AM 55.9 °F 51.8 °F 86% 29.97 in 10.0 mi WNW 9.2 mph - N/A   Clear
8:55 AM 56.7 °F 52.0 °F 84% 29.97 in 10.0 mi WNW 9.2 mph - N/A   Clear
9:15 AM 57.9 °F 51.8 °F 80% 29.97 in 10.0 mi WNW 8.1 mph - N/A   Clear
9:36 AM 59.0 °F 51.8 °F 77% 29.97 in 10.0 mi WNW 9.2 mph - N/A   Clear
9:55 AM 60.1 °F 52.2 °F 75% 29.97 in 10.0 mi West 5.8 mph - N/A   Clear
10:15 AM 60.8 °F 51.3 °F 71% 29.97 in 10.0 mi West 8.1 mph - N/A   Clear
10:36 AM 62.1 °F 51.4 °F 68% 29.97 in 10.0 mi West 4.6 mph - N/A   Clear
10:55 AM 61.9 °F 52.5 °F 71% 29.97 in 10.0 mi West 6.9 mph - N/A   Clear
11:15 AM 63.3 °F 52.7 °F 68% 29.97 in 10.0 mi West 12.7 mph - N/A   Clear
11:35 AM 63.5 °F 52.7 °F 68% 29.98 in 10.0 mi West 9.2 mph - N/A   Clear
11:55 AM 63.9 °F 52.7 °F 67% 29.98 in 10.0 mi West 13.8 mph - N/A   Clear
12:16 PM 64.4 °F 52.7 °F 66% 29.98 in 10.0 mi West 12.7 mph - N/A   Clear
12:35 PM 64.9 °F 50.9 °F 60% 29.97 in 10.0 mi West 11.5 mph - N/A   Clear
12:55 PM 65.3 °F 51.8 °F 62% 29.98 in 10.0 mi West 13.8 mph 17.3 mph N/A   Clear
1:16 PM 65.1 °F 51.4 °F 61% 29.97 in 10.0 mi West 10.4 mph 18.4 mph N/A   Clear
1:35 PM 65.7 °F 52.2 °F 62% 29.97 in 10.0 mi WSW 10.4 mph 18.4 mph N/A   Clear
1:55 PM 65.5 °F 50.9 °F 59% 29.97 in 10.0 mi West 11.5 mph 18.4 mph N/A   Clear
2:15 PM 65.7 °F 53.1 °F 64% 29.97 in 10.0 mi WSW 13.8 mph 19.6 mph N/A   Clear
2:35 PM 66.0 °F 52.9 °F 63% 29.96 in 10.0 mi WSW 11.5 mph 19.6 mph N/A   Clear
2:55 PM 66.2 °F 54.0 °F 65% 29.95 in 10.0 mi WSW 9.2 mph 18.4 mph N/A   Clear
3:15 PM 66.6 °F 54.7 °F 66% 29.95 in 10.0 mi WSW 11.5 mph 19.6 mph N/A   Clear
3:35 PM 66.9 °F 54.7 °F 65% 29.94 in 10.0 mi WSW 13.8 mph 23.0 mph N/A   Clear
3:55 PM 67.3 °F 54.5 °F 63% 29.94 in 10.0 mi WSW 9.2 mph 21.9 mph N/A   Clear
4:15 PM 67.1 °F 52.0 °F 58% 29.94 in 10.0 mi WSW 12.7 mph 23.0 mph N/A   Clear
4:35 PM 67.3 °F 52.3 °F 59% 29.93 in 10.0 mi WSW 15.0 mph 25.3 mph N/A   Clear
4:55 PM 67.1 °F 51.8 °F 58% 29.93 in 10.0 mi WSW 13.8 mph 23.0 mph N/A   Clear
5:15 PM 66.9 °F 53.1 °F 61% 29.93 in 10.0 mi WSW 12.7 mph 21.9 mph N/A   Clear
5:35 PM 67.1 °F 53.4 °F 61% 29.93 in 10.0 mi WSW 11.5 mph 19.6 mph N/A   Clear
5:56 PM 66.6 °F 55.2 °F 67% 29.92 in 10.0 mi WSW 12.7 mph 21.9 mph N/A   Clear
6:15 PM 66.7 °F 56.3 °F 69% 29.92 in 10.0 mi WSW 11.5 mph 18.4 mph N/A   Clear
6:35 PM 66.6 °F 56.5 °F 70% 29.91 in 10.0 mi WSW 13.8 mph 20.7 mph N/A   Clear
6:55 PM 66.2 °F 56.8 °F 72% 29.92 in 10.0 mi WSW 13.8 mph 23.0 mph N/A   Clear
7:15 PM 65.7 °F 57.2 °F 74% 29.91 in 10.0 mi WSW 13.8 mph 20.7 mph N/A   Clear
7:35 PM 65.3 °F 57.0 °F 75% 29.91 in 10.0 mi WSW 12.7 mph 21.9 mph N/A   Clear
7:55 PM 64.6 °F 56.3 °F 74% 29.91 in 10.0 mi WSW 13.8 mph 20.7 mph N/A   Clear
8:15 PM 64.4 °F 56.8 °F 76% 29.91 in 10.0 mi WSW 13.8 mph 21.9 mph N/A   Clear
8:35 PM 64.4 °F 57.4 °F 78% 29.91 in 10.0 mi WSW 16.1 mph 21.9 mph N/A   Clear
8:55 PM 64.2 °F 58.1 °F 80% 29.91 in 10.0 mi WSW 13.8 mph 19.6 mph N/A   Clear
9:15 PM 64.4 °F 58.1 °F 80% 29.91 in 10.0 mi WSW 15.0 mph 23.0 mph N/A   Clear
9:36 PM 64.6 °F 58.1 °F 79% 29.90 in 10.0 mi WSW 12.7 mph 24.2 mph N/A   Clear
9:55 PM 64.6 °F 58.3 °F 80% 29.90 in 10.0 mi WSW 15.0 mph 23.0 mph N/A   Clear
10:15 PM 64.8 °F 58.1 °F 79% 29.90 in 10.0 mi WSW 15.0 mph 24.2 mph N/A   Clear
10:36 PM 65.1 °F 58.5 °F 79% 29.90 in 10.0 mi WSW 17.3 mph 27.6 mph N/A   Clear
10:55 PM 64.9 °F 59.0 °F 81% 29.90 in 10.0 mi WSW 13.8 mph 27.6 mph N/A   Clear
11:15 PM 65.3 °F 59.5 °F 82% 29.90 in 10.0 mi WSW 16.1 mph 24.2 mph N/A   Clear
11:36 PM 65.3 °F 59.9 °F 83% 29.89 in 10.0 mi WSW 13.8 mph 23.0 mph N/A   Clear
11:55 PM 65.5 °F 60.1 °F 83% 29.90 in 10.0 mi SW 16.1 mph 26.5 mph N/A   Clear